| time (UTC) | temp F | wind direction | speed MPH | gust MPH | rain 1hr in | rain 24hr in | rain mn in | humidity % | barometer mb |
| 20260831094259 | 85 | 232 | 4.0 | 11.0 | 0.00 | 0.00 | 0.00 | 62 | 1016.2 |
| 20260831093754 | 84 | 271 | 5.0 | 11.0 | 0.00 | 0.00 | 0.00 | 65 | 1016.2 |
| 20260831093254 | 84 | 259 | 4.0 | 8.0 | 0.00 | 0.00 | 0.00 | 69 | 1016.3 |
| 20260831092755 | 83 | 257 | 4.0 | 8.0 | 0.00 | 0.00 | 0.00 | 71 | 1016.3 |
| 20260831092254 | 83 | 285 | 5.0 | 9.0 | 0.00 | 0.00 | 0.00 | 74 | 1016.4 |
| 20260831091755 | 82 | 269 | 5.0 | 9.0 | 0.00 | 0.00 | 0.00 | 74 | 1016.4 |
| 20260831091254 | 82 | 255 | 5.0 | 9.0 | 0.00 | 0.00 | 0.00 | 74 | 1016.5 |
| 20260831090754 | 82 | 289 | 5.0 | 9.0 | 0.00 | 0.00 | 0.00 | 73 | 1016.6 |
| 20260831090255 | 82 | 300 | 5.0 | 9.0 | 0.00 | 0.00 | 0.00 | 72 | 1016.7 |
| 20260831085754 | 82 | 293 | 4.0 | 8.0 | 0.00 | 0.00 | 0.00 | 70 | 1016.7 |
| 20260831085254 | 82 | 254 | 4.0 | 8.0 | 0.00 | 0.00 | 0.00 | 69 | 1016.7 |
| 20260831084748 | 82 | 278 | 4.0 | 7.0 | 0.00 | 0.00 | 0.00 | 69 | 1016.7 |
| 20260831084242 | 82 | 293 | 4.0 | 6.0 | 0.00 | 0.00 | 0.00 | 69 | 1016.9 |
| 20260831084008 | 82 | 304 | 3.0 | 6.0 | 0.00 | 0.00 | 0.00 | 69 | 1016.9 |
| 20260831083230 | 82 | 283 | 4.0 | 7.0 | 0.00 | 0.00 | 0.00 | 69 | 1016.7 |
| 20260831082728 | 82 | 293 | 4.0 | 7.0 | 0.00 | 0.00 | 0.00 | 69 | 1016.7 |
| 20260831082217 | 82 | 284 | 4.0 | 7.0 | 0.00 | 0.00 | 0.00 | 69 | 1016.7 |
| 20260831081712 | 82 | 289 | 4.0 | 7.0 | 0.00 | 0.00 | 0.00 | 68 | 1016.7 |
| 20260831081205 | 82 | 291 | 4.0 | 7.0 | 0.00 | 0.00 | 0.00 | 67 | 1016.6 |
| 20260831080659 | 82 | 271 | 4.0 | 7.0 | 0.00 | 0.00 | 0.00 | 67 | 1016.6 |
| 20260831080154 | 82 | 256 | 3.0 | 6.0 | 0.00 | 0.00 | 0.00 | 66 | 1016.7 |
| 20260831075914 | 82 | 264 | 3.0 | 7.0 | 0.00 | 0.00 | 0.00 | 67 | 1016.6 |
| 20260831075408 | 82 | 280 | 3.0 | 7.0 | 0.00 | 0.00 | 0.00 | 68 | 1016.6 |
| 20260831075110 | 82 | 287 | 3.0 | 6.0 | 0.00 | 0.00 | 0.00 | 68 | 1016.6 |
| 20260831074130 | 82 | 299 | 3.0 | 6.0 | 0.00 | 0.00 | 0.00 | 67 | 1016.6 |
| 20260831073624 | 82 | 257 | 3.0 | 6.0 | 0.00 | 0.00 | 0.00 | 66 | 1016.6 |
| 20260831073118 | 82 | 286 | 3.0 | 6.0 | 0.00 | 0.00 | 0.00 | 65 | 1016.5 |
| 20260831072829 | 82 | 269 | 2.0 | 6.0 | 0.00 | 0.00 | 0.00 | 64 | 1016.5 |
| 20260831072106 | 82 | 318 | 2.0 | 5.0 | 0.00 | 0.00 | 0.00 | 64 | 1016.5 |
| 20260831071600 | 83 | 258 | 1.0 | 4.0 | 0.00 | 0.00 | 0.00 | 63 | 1016.5 |
| 20260831071053 | 82 | 236 | 2.0 | 5.0 | 0.00 | 0.00 | 0.00 | 64 | 1016.5 |
| 20260831070547 | 82 | 271 | 2.0 | 5.0 | 0.00 | 0.00 | 0.00 | 63 | 1016.6 |
| 20260831070042 | 83 | 265 | 1.0 | 4.0 | 0.00 | 0.00 | 0.00 | 62 | 1016.5 |
| 20260831065536 | 83 | 198 | 1.0 | 3.0 | 0.00 | 0.00 | 0.00 | 62 | 1016.5 |
| 20260831065030 | 83 | 279 | 1.0 | 3.0 | 0.00 | 0.00 | 0.00 | 61 | 1016.5 |
| 20260831064530 | 83 | 155 | 1.0 | 3.0 | 0.00 | 0.00 | 0.00 | 61 | 1016.5 |
| 20260831064028 | 84 | 281 | 0.0 | 3.0 | 0.00 | 0.00 | 0.00 | 59 | 1016.5 |
| 20260831063526 | 83 | 183 | 0.0 | 2.0 | 0.00 | 0.00 | 0.00 | 61 | 1016.5 |
| 20260831063247 | 82 | 206 | 1.0 | 3.0 | 0.00 | 0.00 | 0.00 | 62 | 1016.5 |
| 20260831062523 | 82 | 263 | 1.0 | 3.0 | 0.00 | 0.00 | 0.00 | 62 | 1016.6 |
| 20260831062245 | 83 | 296 | 0.0 | 2.0 | 0.00 | 0.00 | 0.00 | 60 | 1016.5 |
| 20260831061522 | 82 | 163 | 1.0 | 2.0 | 0.00 | 0.00 | 0.00 | 60 | 1016.5 |
| 20260831061020 | 82 | 156 | 1.0 | 2.0 | 0.00 | 0.00 | 0.00 | 59 | 1016.5 |
| 20260831060741 | 82 | 161 | 0.0 | 2.0 | 0.00 | 0.00 | 0.00 | 59 | 1016.5 |
| 20260831060241 | 81 | 107 | 1.0 | 3.0 | 0.00 | 0.00 | 0.00 | 56 | 1016.6 |
| 20260831055743 | 81 | 187 | 1.0 | 6.0 | 0.00 | 0.00 | 0.00 | 57 | 1016.6 |
| 20260831055020 | 81 | 197 | 2.0 | 6.0 | 0.00 | 0.00 | 0.00 | 60 | 1016.5 |
| 20260831054518 | 80 | 162 | 2.0 | 5.0 | 0.00 | 0.00 | 0.00 | 62 | 1016.5 |
| 20260831054018 | 80 | 176 | 1.0 | 5.0 | 0.00 | 0.00 | 0.00 | 62 | 1016.5 |
| 20260831053519 | 80 | 153 | 1.0 | 3.0 | 0.00 | 0.00 | 0.00 | 64 | 1016.4 |
| 20260831053018 | 80 | 144 | 1.0 | 2.0 | 0.00 | 0.00 | 0.00 | 65 | 1016.3 |
| 20260831052518 | 80 | 203 | 1.0 | 2.0 | 0.00 | 0.00 | 0.00 | 65 | 1016.3 |
| 20260831052459 | 80 | 205 | 1.0 | 2.0 | 0.00 | 0.00 | 0.00 | 66 | 1016.2 |
| 20260831051512 | 79 | 188 | 1.0 | 2.0 | 0.00 | 0.00 | 0.00 | 67 | 1016.2 |
| 20260831051005 | 79 | 151 | 1.0 | 2.0 | 0.00 | 0.00 | 0.00 | 67 | 1016.2 |
| 20260831050459 | 79 | 152 | 0.0 | 2.0 | 0.00 | 0.00 | 0.00 | 69 | 1016.2 |
| 20260831045954 | 78 | 154 | 0.0 | 2.0 | 0.00 | 0.00 | 0.00 | 70 | 1016.1 |
| 20260831045448 | 78 | 217 | 0.0 | 2.0 | 0.00 | 0.00 | 0.00 | 71 | 1016.1 |
| 20260831045204 | 78 | 217 | 0.0 | 3.0 | 0.00 | 0.00 | 0.00 | 72 | 1016.0 |
| 20260831044657 | 77 | 239 | 0.0 | 3.0 | 0.00 | 0.00 | 0.00 | 72 | 1016.0 |
| 20260831043929 | 77 | 212 | 0.0 | 2.0 | 0.00 | 0.00 | 0.00 | 72 | 1015.9 |
| 20260831043429 | 77 | 212 | 0.0 | 2.0 | 0.00 | 0.00 | 0.00 | 72 | 1015.9 |
| 20260831043150 | 77 | 212 | 0.0 | 2.0 | 0.00 | 0.00 | 0.00 | 72 | 1016.0 |
| 20260831042429 | 77 | 228 | 1.0 | 2.0 | 0.00 | 0.00 | 0.00 | 73 | 1016.0 |
| 20260831041930 | 77 | 259 | 1.0 | 3.0 | 0.00 | 0.00 | 0.00 | 71 | 1015.9 |
| 20260831041430 | 77 | 264 | 1.0 | 3.0 | 0.00 | 0.00 | 0.00 | 71 | 1015.9 |
| 20260831040929 | 77 | 261 | 2.0 | 3.0 | 0.00 | 0.00 | 0.00 | 70 | 1015.8 |
| 20260831040427 | 78 | 266 | 1.0 | 3.0 | 0.00 | 0.00 | 0.00 | 69 | 1015.8 |
| 20260831035928 | 77 | 98 | 0.0 | 2.0 | 0.00 | 0.00 | 0.00 | 65 | 1015.7 |
| 20260831035428 | 77 | 100 | 0.0 | 0.0 | 0.00 | 0.00 | 0.00 | 66 | 1015.6 |
| 20260831034927 | 77 | 100 | 0.0 | 0.0 | 0.00 | 0.00 | 0.00 | 63 | 1015.7 |
| 20260831034426 | 77 | 100 | 0.0 | 0.0 | 0.00 | 0.00 | 0.00 | 62 | 1015.7 |
| 20260831033924 | 77 | 100 | 0.0 | 0.0 | 0.00 | 0.00 | 0.00 | 61 | 1015.8 |
| 20260831033422 | 77 | 100 | 0.0 | 1.0 | 0.00 | 0.00 | 0.00 | 62 | 1015.8 |
| 20260831032922 | 77 | 100 | 0.0 | 1.0 | 0.00 | 0.00 | 0.00 | 62 | 1015.8 |
| 20260831032420 | 77 | 100 | 0.0 | 1.0 | 0.00 | 0.00 | 0.00 | 62 | 1015.8 |
| 20260831031919 | 77 | 100 | 0.0 | 1.0 | 0.00 | 0.00 | 0.00 | 63 | 1015.8 |
| 20260831031418 | 77 | 100 | 0.0 | 1.0 | 0.00 | 0.00 | 0.00 | 63 | 1015.8 |
| 20260831030917 | 77 | 100 | 0.0 | 1.0 | 0.00 | 0.00 | 0.00 | 63 | 1015.7 |
| 20260831030418 | 77 | 100 | 0.0 | 1.0 | 0.00 | 0.00 | 0.00 | 63 | 1015.7 |
| 20260831025918 | 77 | 100 | 0.0 | 1.0 | 0.00 | 0.00 | 0.00 | 64 | 1015.8 |
| 20260831025418 | 77 | 100 | 0.0 | 1.0 | 0.00 | 0.00 | 0.00 | 64 | 1015.8 |
| 20260831025147 | 77 | 100 | 0.0 | 0.0 | 0.00 | 0.00 | 0.00 | 64 | 1015.8 |
| 20260831024418 | 77 | 100 | 0.0 | 1.0 | 0.00 | 0.00 | 0.00 | 65 | 1015.8 |
| 20260831023918 | 77 | 100 | 0.0 | 1.0 | 0.00 | 0.00 | 0.00 | 65 | 1015.8 |
| 20260831023418 | 77 | 100 | 0.0 | 1.0 | 0.00 | 0.00 | 0.00 | 67 | 1015.9 |
| 20260831022913 | 77 | 100 | 0.0 | 1.0 | 0.00 | 0.00 | 0.00 | 69 | 1015.9 |
| 20260831022413 | 77 | 100 | 0.0 | 0.0 | 0.00 | 0.00 | 0.00 | 70 | 1015.9 |
| 20260831021914 | 77 | 100 | 0.0 | 0.0 | 0.00 | 0.00 | 0.00 | 70 | 1015.9 |
| 20260831021413 | 77 | 100 | 0.0 | 1.0 | 0.00 | 0.00 | 0.00 | 70 | 1016.0 |
| 20260831020914 | 77 | 100 | 0.0 | 1.0 | 0.00 | 0.00 | 0.00 | 69 | 1016.0 |
| 20260831020414 | 77 | 100 | 0.0 | 1.0 | 0.00 | 0.00 | 0.00 | 68 | 1016.0 |
| 20260831015913 | 77 | 100 | 0.0 | 1.0 | 0.00 | 0.00 | 0.00 | 68 | 1016.0 |
| 20260831015639 | 77 | 100 | 0.0 | 0.0 | 0.00 | 0.00 | 0.00 | 68 | 1016.0 |
| 20260831015143 | 77 | 100 | 0.0 | 1.0 | 0.00 | 0.00 | 0.00 | 68 | 1016.1 |
| 20260831014631 | 77 | 100 | 1.0 | 1.0 | 0.00 | 0.00 | 0.00 | 68 | 1016.0 |
| 20260831014133 | 78 | 100 | 0.0 | 1.0 | 0.00 | 0.00 | 0.00 | 67 | 1016.0 |
| 20260831013411 | 78 | 100 | 0.0 | 1.0 | 0.00 | 0.00 | 0.00 | 68 | 1015.9 |
| 20260831012910 | 78 | 100 | 0.0 | 1.0 | 0.00 | 0.00 | 0.00 | 69 | 1015.9 |
| 20260831012409 | 78 | 100 | 0.0 | 1.0 | 0.00 | 0.00 | 0.00 | 69 | 1015.9 |
| 20260831011909 | 78 | 100 | 0.0 | 0.0 | 0.00 | 0.00 | 0.00 | 70 | 1015.9 |
| 20260831011408 | 78 | 100 | 0.0 | 0.0 | 0.00 | 0.00 | 0.00 | 69 | 1015.9 |
| 20260831010906 | 78 | 100 | 0.0 | 1.0 | 0.00 | 0.00 | 0.00 | 69 | 1015.9 |
| 20260831010406 | 78 | 100 | 0.0 | 1.0 | 0.00 | 0.00 | 0.00 | 70 | 1015.9 |
| 20260831005905 | 78 | 100 | 0.0 | 1.0 | 0.00 | 0.00 | 0.00 | 70 | 1016.0 |
| 20260831005406 | 78 | 100 | 0.0 | 0.0 | 0.00 | 0.00 | 0.00 | 70 | 1016.0 |
| 20260831004905 | 78 | 100 | 0.0 | 1.0 | 0.00 | 0.00 | 0.00 | 70 | 1016.0 |
| 20260831004403 | 78 | 100 | 0.0 | 1.0 | 0.00 | 0.00 | 0.00 | 70 | 1016.0 |
| 20260831003901 | 78 | 100 | 0.0 | 2.0 | 0.00 | 0.00 | 0.00 | 70 | 1015.9 |
| 20260831003359 | 78 | 100 | 1.0 | 2.0 | 0.00 | 0.00 | 0.00 | 70 | 1015.9 |
| 20260831003116 | 78 | 100 | 0.0 | 2.0 | 0.00 | 0.00 | 0.00 | 70 | 1015.8 |
| 20260831002358 | 78 | 100 | 0.0 | 1.0 | 0.00 | 0.00 | 0.00 | 70 | 1015.9 |
| 20260831002115 | 78 | 100 | 1.0 | 3.0 | 0.00 | 0.00 | 0.00 | 70 | 1015.9 |
| 20260831001347 | 78 | 100 | 1.0 | 3.0 | 0.00 | 0.00 | 0.00 | 70 | 1015.8 |
| 20260831000840 | 79 | 98 | 1.0 | 3.0 | 0.00 | 0.00 | 0.00 | 70 | 1015.8 |
| 20260831000334 | 79 | 98 | 1.0 | 3.0 | 0.00 | 0.00 | 0.00 | 70 | 1015.9 |
| 20260830235829 | 79 | 87 | 1.0 | 3.0 | 0.00 | 0.00 | 0.00 | 70 | 1016.0 |
| 20260830235539 | 79 | 358 | 0.0 | 1.0 | 0.00 | 0.00 | 0.00 | 72 | 1016.0 |
| 20260830234815 | 79 | 358 | 1.0 | 2.0 | 0.00 | 0.00 | 0.00 | 72 | 1015.9 |
| 20260830234309 | 79 | 358 | 1.0 | 2.0 | 0.00 | 0.00 | 0.00 | 72 | 1016.0 |
| 20260830233802 | 79 | 93 | 1.0 | 2.0 | 0.00 | 0.00 | 0.00 | 73 | 1015.9 |
| 20260830233257 | 79 | 96 | 0.0 | 1.0 | 0.00 | 0.00 | 0.00 | 73 | 1016.1 |
| 20260830232751 | 79 | 96 | 0.0 | 1.0 | 0.00 | 0.00 | 0.00 | 73 | 1016.0 |
| 20260830232245 | 79 | 96 | 0.0 | 1.0 | 0.00 | 0.00 | 0.00 | 73 | 1016.0 |
| 20260830231738 | 79 | 96 | 0.0 | 1.0 | 0.00 | 0.00 | 0.00 | 73 | 1016.1 |
| 20260830231233 | 79 | 96 | 0.0 | 1.0 | 0.00 | 0.00 | 0.00 | 73 | 1016.1 |
| 20260830230726 | 79 | 96 | 0.0 | 1.0 | 0.00 | 0.00 | 0.00 | 73 | 1016.1 |
| 20260830230221 | 79 | 96 | 1.0 | 2.0 | 0.00 | 0.00 | 0.00 | 72 | 1016.1 |
| 20260830225715 | 79 | 96 | 1.0 | 2.0 | 0.00 | 0.00 | 0.00 | 71 | 1016.1 |
| 20260830225208 | 79 | 96 | 0.0 | 1.0 | 0.00 | 0.00 | 0.00 | 72 | 1016.1 |
| 20260830224941 | 79 | 96 | 0.0 | 1.0 | 0.00 | 0.00 | 0.00 | 71 | 1016.1 |
| 20260830224158 | 79 | 96 | 0.0 | 1.0 | 0.00 | 0.00 | 0.00 | 71 | 1016.1 |
| 20260830223701 | 79 | 96 | 0.0 | 1.0 | 0.00 | 0.00 | 0.00 | 71 | 1016.1 |
| 20260830223418 | 79 | 96 | 1.0 | 1.0 | 0.00 | 0.00 | 0.00 | 71 | 1016.1 |
| 20260830222929 | 79 | 134 | 1.0 | 0.0 | 0.00 | 0.00 | 0.00 | 71 | 1016.0 |
| 20260830222314 | 79 | 139 | 1.0 | 4.0 | 0.00 | 0.00 | 0.00 | 72 | 1016.1 |
| 20260830221813 | 78 | 141 | 1.0 | 4.0 | 0.00 | 0.00 | 0.00 | 72 | 1016.2 |
| 20260830221305 | 78 | 146 | 1.0 | 4.0 | 0.00 | 0.00 | 0.00 | 73 | 1016.3 |
| 20260830220831 | 78 | 192 | 1.0 | 5.0 | 0.00 | 0.00 | 0.00 | 73 | 1016.3 |
| 20260830220737 | 78 | 224 | 2.0 | 5.0 | 0.00 | 0.00 | 0.00 | 74 | 1016.3 |
| 20260830220331 | 78 | 224 | 2.0 | 5.0 | 0.00 | 0.00 | 0.00 | 74 | 1016.3 |
| 20260830215810 | 78 | 145 | 2.0 | 4.0 | 0.00 | 0.00 | 0.00 | 74 | 1016.3 |
| 20260830215546 | 79 | 236 | 2.0 | 4.0 | 0.00 | 0.00 | 0.00 | 74 | 1016.4 |
| 20260830215305 | 78 | 152 | 2.0 | 4.0 | 0.00 | 0.00 | 0.00 | 74 | 1016.4 |
| 20260830214229 | 79 | 141 | 2.0 | 4.0 | 0.00 | 0.00 | 0.00 | 72 | 1016.3 |
| 20260830213735 | 79 | 141 | 2.0 | 4.0 | 0.00 | 0.00 | 0.00 | 71 | 1016.3 |
| 20260830213543 | 80 | 148 | 1.0 | 4.0 | 0.00 | 0.00 | 0.00 | 71 | 1016.1 |
| 20260830213537 | 79 | 200 | 1.0 | 4.0 | 0.00 | 0.00 | 0.00 | 72 | 1016.2 |
| 20260830213102 | 80 | 139 | 1.0 | 3.0 | 0.00 | 0.00 | 0.00 | 71 | 1016.1 |
| 20260830213043 | 79 | 257 | 1.0 | 4.0 | 0.00 | 0.00 | 0.00 | 72 | 1016.2 |
| 20260830212308 | 80 | 210 | 1.0 | 4.0 | 0.00 | 0.00 | 0.00 | 71 | 1016.1 |
| 20260830210724 | 80 | 240 | 0.0 | 2.0 | 0.00 | 0.00 | 0.00 | 69 | 1016.1 |
| 20260830210223 | 80 | 240 | 0.0 | 2.0 | 0.00 | 0.00 | 0.00 | 68 | 1016.1 |
| 20260830205943 | 80 | 244 | 0.0 | 2.0 | 0.00 | 0.00 | 0.00 | 69 | 1016.1 |
| 20260830205220 | 80 | 159 | 0.0 | 1.0 | 0.00 | 0.00 | 0.00 | 70 | 1016.1 |
| 20260830204718 | 80 | 158 | 0.0 | 1.0 | 0.00 | 0.00 | 0.00 | 70 | 1016.0 |
| 20260830204218 | 80 | 159 | 0.0 | 1.0 | 0.00 | 0.00 | 0.00 | 70 | 1016.0 |
| 20260830203715 | 80 | 159 | 0.0 | 4.0 | 0.00 | 0.00 | 0.00 | 70 | 1016.0 |
| 20260830203215 | 80 | 159 | 1.0 | 4.0 | 0.00 | 0.00 | 0.00 | 70 | 1016.0 |
| 20260830202713 | 80 | 158 | 1.0 | 4.0 | 0.00 | 0.00 | 0.00 | 71 | 1016.0 |
| 20260830202211 | 80 | 112 | 3.0 | 5.0 | 0.00 | 0.00 | 0.00 | 71 | 1016.0 |
| 20260830201709 | 80 | 89 | 4.0 | 7.0 | 0.00 | 0.00 | 0.00 | 71 | 1016.0 |
| 20260830201209 | 80 | 115 | 4.0 | 8.0 | 0.00 | 0.00 | 0.00 | 71 | 1016.0 |
| 20260830200708 | 80 | 87 | 4.0 | 8.0 | 0.00 | 0.00 | 0.00 | 71 | 1016.0 |
| 20260830200425 | 80 | 100 | 5.0 | 10.0 | 0.00 | 0.00 | 0.00 | 71 | 1015.9 |
| 20260830195705 | 80 | 146 | 5.0 | 10.0 | 0.00 | 0.00 | 0.00 | 71 | 1015.9 |
| 20260830195205 | 80 | 110 | 6.0 | 12.0 | 0.00 | 0.00 | 0.00 | 72 | 1016.0 |
| 20260830194706 | 80 | 94 | 6.0 | 12.0 | 0.00 | 0.00 | 0.00 | 72 | 1016.0 |
| 20260830194205 | 80 | 94 | 4.0 | 10.0 | 0.00 | 0.00 | 0.00 | 72 | 1016.1 |
| 20260830193706 | 80 | 86 | 4.0 | 9.0 | 0.00 | 0.00 | 0.00 | 71 | 1016.1 |
| 20260830193205 | 80 | 140 | 4.0 | 10.0 | 0.00 | 0.00 | 0.00 | 71 | 1016.1 |
| 20260830192703 | 80 | 99 | 5.0 | 11.0 | 0.00 | 0.00 | 0.00 | 71 | 1016.1 |
| 20260830192203 | 80 | 115 | 5.0 | 11.0 | 0.00 | 0.00 | 0.00 | 71 | 1016.1 |
| 20260830191703 | 80 | 105 | 4.0 | 10.0 | 0.00 | 0.00 | 0.00 | 71 | 1016.1 |
| 20260830191203 | 80 | 174 | 4.0 | 10.0 | 0.00 | 0.00 | 0.00 | 71 | 1016.1 |
| 20260830190923 | 80 | 123 | 4.0 | 10.0 | 0.00 | 0.00 | 0.00 | 71 | 1016.1 |
| 20260830190424 | 80 | 141 | 3.0 | 7.0 | 0.00 | 0.00 | 0.00 | 71 | 1016.0 |
| 20260830185920 | 80 | 120 | 2.0 | 7.0 | 0.00 | 0.00 | 0.00 | 71 | 1016.0 |
| 20260830185201 | 80 | 160 | 2.0 | 7.0 | 0.00 | 0.00 | 0.00 | 71 | 1016.0 |
| 20260830184659 | 80 | 126 | 3.0 | 9.0 | 0.00 | 0.00 | 0.00 | 71 | 1016.0 |
| 20260830184159 | 80 | 114 | 5.0 | 9.0 | 0.00 | 0.00 | 0.00 | 71 | 1015.9 |
| 20260830183659 | 80 | 90 | 4.0 | 10.0 | 0.00 | 0.00 | 0.00 | 71 | 1015.8 |
| 20260830183159 | 81 | 72 | 2.0 | 10.0 | 0.00 | 0.00 | 0.00 | 71 | 1015.7 |
| 20260830182659 | 81 | 252 | 2.0 | 8.0 | 0.00 | 0.00 | 0.00 | 71 | 1015.7 |
| 20260830182159 | 81 | 48 | 2.0 | 8.0 | 0.00 | 0.00 | 0.00 | 71 | 1015.6 |
| 20260830182149 | 81 | 160 | 2.0 | 8.0 | 0.00 | 0.00 | 0.00 | 71 | 1015.5 |
| 20260830181156 | 81 | 152 | 2.0 | 11.0 | 0.00 | 0.00 | 0.00 | 71 | 1015.5 |
| 20260830180657 | 81 | 143 | 3.0 | 11.0 | 0.00 | 0.00 | 0.00 | 71 | 1015.5 |
| 20260830180157 | 81 | 127 | 5.0 | 12.0 | 0.00 | 0.00 | 0.00 | 70 | 1015.3 |
| 20260830175657 | 81 | 153 | 5.0 | 12.0 | 0.00 | 0.00 | 0.00 | 70 | 1015.2 |
| 20260830175157 | 81 | 184 | 4.0 | 9.0 | 0.00 | 0.00 | 0.00 | 69 | 1015.0 |
| 20260830174836 | 81 | 82 | 3.0 | 9.0 | 0.00 | 0.00 | 0.00 | 68 | 1014.9 |
| 20260830174111 | 82 | 53 | 2.0 | 7.0 | 0.00 | 0.00 | 0.00 | 68 | 1014.8 |
| 20260830173611 | 82 | 165 | 3.0 | 8.0 | 0.00 | 0.00 | 0.00 | 68 | 1014.8 |
| 20260830173110 | 82 | 186 | 4.0 | 8.0 | 0.00 | 0.00 | 0.00 | 68 | 1014.7 |
| 20260830172609 | 82 | 124 | 5.0 | 9.0 | 0.00 | 0.00 | 0.00 | 68 | 1014.7 |
| 20260830172108 | 82 | 131 | 4.0 | 9.0 | 0.00 | 0.00 | 0.00 | 67 | 1014.6 |
| 20260830171607 | 83 | 225 | 3.0 | 7.0 | 0.00 | 0.00 | 0.00 | 66 | 1014.6 |
| 20260830171107 | 83 | 229 | 3.0 | 9.0 | 0.00 | 0.00 | 0.00 | 65 | 1014.5 |
| 20260830170607 | 83 | 141 | 3.0 | 10.0 | 0.00 | 0.00 | 0.00 | 65 | 1014.4 |
| 20260830170105 | 83 | 167 | 4.0 | 12.0 | 0.00 | 0.00 | 0.00 | 65 | 1014.4 |
| 20260830165605 | 83 | 202 | 5.0 | 12.0 | 0.00 | 0.00 | 0.00 | 64 | 1014.3 |
| 20260830165059 | 83 | 150 | 4.0 | 10.0 | 0.00 | 0.00 | 0.00 | 64 | 1014.4 |
| 20260830164553 | 83 | 153 | 3.0 | 10.0 | 0.00 | 0.00 | 0.00 | 65 | 1014.3 |
| 20260830164053 | 84 | 231 | 4.0 | 10.0 | 0.00 | 0.00 | 0.00 | 64 | 1014.3 |
| 20260830163551 | 84 | 237 | 5.0 | 11.0 | 0.00 | 0.00 | 0.00 | 64 | 1014.3 |
| 20260830163051 | 84 | 169 | 4.0 | 11.0 | 0.00 | 0.00 | 0.00 | 64 | 1014.3 |
| 20260830162551 | 85 | 209 | 4.0 | 10.0 | 0.00 | 0.00 | 0.00 | 65 | 1014.2 |
| 20260830162051 | 85 | 150 | 3.0 | 10.0 | 0.00 | 0.00 | 0.00 | 64 | 1014.2 |
| 20260830161551 | 85 | 120 | 3.0 | 10.0 | 0.00 | 0.00 | 0.00 | 63 | 1014.2 |
| 20260830161049 | 86 | 138 | 4.0 | 9.0 | 0.00 | 0.00 | 0.00 | 62 | 1014.1 |
| 20260830160548 | 86 | 204 | 4.0 | 9.0 | 0.00 | 0.00 | 0.00 | 62 | 1014.2 |
| 20260830160048 | 87 | 201 | 4.0 | 12.0 | 0.00 | 0.00 | 0.00 | 61 | 1014.1 |
| 20260830155547 | 87 | 139 | 4.0 | 12.0 | 0.00 | 0.00 | 0.00 | 61 | 1014.0 |
| 20260830155047 | 87 | 194 | 4.0 | 9.0 | 0.00 | 0.00 | 0.00 | 60 | 1014.0 |
| 20260830154548 | 87 | 198 | 4.0 | 14.0 | 0.00 | 0.00 | 0.00 | 59 | 1014.1 |
| 20260830154048 | 87 | 94 | 5.0 | 14.0 | 0.00 | 0.00 | 0.00 | 58 | 1014.0 |
| 20260830153548 | 88 | 174 | 4.0 | 12.0 | 0.00 | 0.00 | 0.00 | 58 | 1014.1 |
| 20260830153044 | 88 | 123 | 5.0 | 12.0 | 0.00 | 0.00 | 0.00 | 57 | 1014.1 |
| 20260830153033 | 88 | 219 | 4.0 | 11.0 | 0.00 | 0.00 | 0.00 | 57 | 1014.0 |
| 20260830152044 | 88 | 198 | 4.0 | 11.0 | 0.00 | 0.00 | 0.00 | 55 | 1014.1 |
| 20260830151542 | 88 | 113 | 5.0 | 11.0 | 0.00 | 0.00 | 0.00 | 54 | 1014.1 |
| 20260830151042 | 89 | 168 | 4.0 | 10.0 | 0.00 | 0.00 | 0.00 | 53 | 1014.2 |
| 20260830150543 | 89 | 257 | 5.0 | 13.0 | 0.00 | 0.00 | 0.00 | 53 | 1014.1 |
| 20260830150043 | 89 | 205 | 5.0 | 13.0 | 0.00 | 0.00 | 0.00 | 52 | 1014.1 |
| 20260830145543 | 89 | 231 | 5.0 | 12.0 | 0.00 | 0.00 | 0.00 | 52 | 1014.1 |
| 20260830145043 | 89 | 207 | 4.0 | 9.0 | 0.00 | 0.00 | 0.00 | 51 | 1014.2 |
| 20260830145021 | 89 | 206 | 5.0 | 12.0 | 0.00 | 0.00 | 0.00 | 50 | 1014.2 |
| 20260830144042 | 89 | 283 | 6.0 | 12.0 | 0.00 | 0.00 | 0.00 | 50 | 1014.2 |
| 20260830143543 | 89 | 226 | 5.0 | 11.0 | 0.00 | 0.00 | 0.00 | 49 | 1014.2 |
| 20260830143306 | 90 | 210 | 5.0 | 11.0 | 0.00 | 0.00 | 0.00 | 48 | 1014.3 |
| 20260830142542 | 90 | 195 | 4.0 | 11.0 | 0.00 | 0.00 | 0.00 | 49 | 1014.2 |
| 20260830142043 | 90 | 160 | 4.0 | 11.0 | 0.00 | 0.00 | 0.00 | 49 | 1014.2 |
| 20260830141542 | 91 | 129 | 4.0 | 9.0 | 0.00 | 0.00 | 0.00 | 49 | 1014.2 |
| 20260830141043 | 91 | 158 | 3.0 | 9.0 | 0.00 | 0.00 | 0.00 | 50 | 1014.3 |
| 20260830140542 | 90 | 155 | 3.0 | 9.0 | 0.00 | 0.00 | 0.00 | 49 | 1014.3 |
| 20260830140529 | 90 | 96 | 4.0 | 9.0 | 0.00 | 0.00 | 0.00 | 49 | 1014.4 |
| 20260830135529 | 90 | 244 | 3.0 | 9.0 | 0.00 | 0.00 | 0.00 | 47 | 1014.3 |
| 20260830135028 | 90 | 206 | 3.0 | 9.0 | 0.00 | 0.00 | 0.00 | 49 | 1014.3 |
| 20260830134529 | 90 | 183 | 3.0 | 8.0 | 0.00 | 0.00 | 0.00 | 47 | 1014.4 |
| 20260830134244 | 90 | 173 | 3.0 | 8.0 | 0.00 | 0.00 | 0.00 | 50 | 1014.3 |
| 20260830133526 | 89 | 281 | 4.0 | 10.0 | 0.00 | 0.00 | 0.00 | 51 | 1014.4 |
| 20260830133247 | 88 | 156 | 6.0 | 12.0 | 0.00 | 0.00 | 0.00 | 51 | 1014.5 |
| 20260830132527 | 89 | 242 | 4.0 | 12.0 | 0.00 | 0.00 | 0.00 | 51 | 1014.5 |
| 20260830132242 | 89 | 216 | 4.0 | 9.0 | 0.00 | 0.00 | 0.00 | 53 | 1014.5 |
| 20260830132019 | 88 | 147 | 4.0 | 11.0 | 0.00 | 0.00 | 0.00 | 55 | 1014.6 |
| 20260830131243 | 88 | 213 | 5.0 | 13.0 | 0.00 | 0.00 | 0.00 | 56 | 1014.6 |
| 20260830130524 | 88 | 175 | 6.0 | 15.0 | 0.00 | 0.00 | 0.00 | 58 | 1014.7 |
| 20260830130022 | 87 | 129 | 5.0 | 15.0 | 0.00 | 0.00 | 0.00 | 59 | 1014.7 |
| 20260830125522 | 88 | 226 | 5.0 | 11.0 | 0.00 | 0.00 | 0.00 | 59 | 1014.8 |
| 20260830125023 | 87 | 258 | 6.0 | 12.0 | 0.00 | 0.00 | 0.00 | 59 | 1014.8 |
| 20260830124522 | 87 | 158 | 5.0 | 12.0 | 0.00 | 0.00 | 0.00 | 59 | 1014.9 |
| 20260830124022 | 88 | 210 | 5.0 | 10.0 | 0.00 | 0.00 | 0.00 | 58 | 1014.9 |
| 20260830123752 | 87 | 228 | 5.0 | 10.0 | 0.00 | 0.00 | 0.00 | 59 | 1014.9 |
| 20260830123015 | 87 | 239 | 4.0 | 10.0 | 0.00 | 0.00 | 0.00 | 58 | 1014.9 |
| 20260830122508 | 88 | 234 | 4.0 | 8.0 | 0.00 | 0.00 | 0.00 | 56 | 1015.0 |
| 20260830122001 | 88 | 260 | 4.0 | 9.0 | 0.00 | 0.00 | 0.00 | 55 | 1015.0 |
| 20260830121455 | 88 | 195 | 4.0 | 9.0 | 0.00 | 0.00 | 0.00 | 55 | 1015.0 |
| 20260830120950 | 88 | 220 | 3.0 | 9.0 | 0.00 | 0.00 | 0.00 | 54 | 1015.2 |
| 20260830120443 | 88 | 239 | 3.0 | 11.0 | 0.00 | 0.00 | 0.00 | 55 | 1015.2 |
| 20260830115937 | 87 | 202 | 4.0 | 11.0 | 0.00 | 0.00 | 0.00 | 55 | 1015.2 |
| 20260830115432 | 87 | 211 | 3.0 | 7.0 | 0.00 | 0.00 | 0.00 | 56 | 1015.2 |
| 20260830114925 | 87 | 257 | 5.0 | 11.0 | 0.00 | 0.00 | 0.00 | 58 | 1015.3 |
| 20260830114419 | 85 | 182 | 6.0 | 11.0 | 0.00 | 0.00 | 0.00 | 60 | 1015.4 |
| 20260830113914 | 85 | 238 | 6.0 | 11.0 | 0.00 | 0.00 | 0.00 | 59 | 1015.5 |
| 20260830113408 | 85 | 255 | 6.0 | 11.0 | 0.00 | 0.00 | 0.00 | 59 | 1015.4 |
| 20260830112901 | 85 | 243 | 5.0 | 11.0 | 0.00 | 0.00 | 0.00 | 58 | 1015.5 |
| 20260830112355 | 86 | 243 | 5.0 | 10.0 | 0.00 | 0.00 | 0.00 | 57 | 1015.6 |
| 20260830112335 | 86 | 232 | 5.0 | 10.0 | 0.00 | 0.00 | 0.00 | 56 | 1015.6 |
| 20260830111345 | 86 | 259 | 4.0 | 9.0 | 0.00 | 0.00 | 0.00 | 56 | 1015.6 |
| 20260830110844 | 86 | 300 | 4.0 | 9.0 | 0.00 | 0.00 | 0.00 | 56 | 1015.7 |
| 20260830110346 | 86 | 231 | 4.0 | 9.0 | 0.00 | 0.00 | 0.00 | 56 | 1015.7 |
| 20260830105844 | 86 | 243 | 3.0 | 8.0 | 0.00 | 0.00 | 0.00 | 56 | 1015.7 |
| 20260830105346 | 86 | 141 | 4.0 | 11.0 | 0.00 | 0.00 | 0.00 | 56 | 1015.8 |
| 20260830104844 | 85 | 131 | 4.0 | 11.0 | 0.00 | 0.00 | 0.00 | 57 | 1015.8 |
| 20260830104346 | 86 | 266 | 3.0 | 9.0 | 0.00 | 0.00 | 0.00 | 55 | 1015.8 |
| 20260830103844 | 86 | 227 | 4.0 | 8.0 | 0.00 | 0.00 | 0.00 | 54 | 1016.0 |
| 20260830103609 | 85 | 245 | 4.0 | 9.0 | 0.00 | 0.00 | 0.00 | 54 | 1016.0 |
| 20260830102844 | 85 | 245 | 4.0 | 9.0 | 0.00 | 0.00 | 0.00 | 54 | 1016.1 |
| 20260830102345 | 85 | 179 | 4.0 | 10.0 | 0.00 | 0.00 | 0.00 | 55 | 1016.1 |
| 20260830101844 | 85 | 246 | 4.0 | 10.0 | 0.00 | 0.00 | 0.00 | 55 | 1016.1 |
| 20260830101604 | 85 | 243 | 4.0 | 12.0 | 0.00 | 0.00 | 0.00 | 55 | 1016.2 |
| 20260830100844 | 85 | 237 | 5.0 | 12.0 | 0.00 | 0.00 | 0.00 | 56 | 1016.3 |
| 20260830100345 | 85 | 195 | 4.0 | 10.0 | 0.00 | 0.00 | 0.00 | 56 | 1016.2 |
| 20260830095844 | 85 | 134 | 3.0 | 10.0 | 0.00 | 0.00 | 0.00 | 58 | 1016.2 |
| 20260830095346 | 84 | 210 | 5.0 | 10.0 | 0.00 | 0.00 | 0.00 | 60 | 1016.2 |